Houston, TX

2:53 PM CDT on July 23, 2016 (GMT -0500)
Hobby

Weather History for KHOU - September, 2012

Change the Weather History Date:

Saturday, September 8, 2012

  Actual Average Record
Temperature  
Mean Temperature 78 °F 82 °F  
Max Temperature 87 °F 92 °F 100 °F (1907)
Min Temperature 69 °F 72 °F 58 °F (1988)
Degree Days  
Heating Degree Days 0 0  
Month to date heating degree days 0 0  
Since 1 July heating degree days 0 0  
Cooling Degree Days 13 17  
Month to date cooling degree days 161 140  
Year to date cooling degree days 2912 2522  
Growing Degree Days 31 (Base 50)    
Moisture  
Dew Point 72 °F    
Average Humidity 74    
Maximum Humidity 91    
Minimum Humidity 57    
Precipitation  
Precipitation T in 0.15 in 0.87 in (1962)
Month to date precipitation 0.23 1.15  
Year to date precipitation 36.03 33.02  
Sea Level Pressure  
Sea Level Pressure 29.93 in    
Wind  
Wind Speed 6 mph (NNW)    
Max Wind Speed 20 mph    
Max Gust Speed 26 mph    
Visibility 10 miles    
Events      
T = Trace of Precipitation, MM = Missing Value Source: NWS Daily Summary

Daily Weather History Graph

Daily Weather History Graph

Search for Another Location

Airport or City:

Trip Planner

Search our weather history database for the weather conditions in past years. The results will help you decide how hot, cold, wet, or windy it might be!

Date:

Astronomy

Sep. 08, 2012 Rise Set
Actual Time 7:02 AM CDT 7:34 PM CDT
Civil Twilight 6:38 AM CDT 7:58 PM CDT
Nautical Twilight 6:10 AM CDT 8:26 PM CDT
Astronomical Twilight 5:41 AM CDT 8:55 PM CDT
Moon 12:04 AM CDT (9/8) 2:12 PM CDT (9/8)
Length of Visible Light 13h 19m
Length of Day
12h 31m
Waning Gibbous, 48% of the Moon is Illuminated
Sep 8
Waning Gibbous
Sep 15
New
Sep 22
First Quarter
Sep 29
Full
Oct 8
Last Quarter

Hourly Weather History & Observations

Time (CDT) Temp. Heat Index Dew Point Humidity Pressure Visibility Wind Dir Wind Speed Gust Speed Precip Events Conditions
12:53 AM 79.0 °F - 75.0 °F 88% 29.85 in 10.0 mi SW 3.5 mph - N/A   Clear
1:53 AM 78.1 °F - 75.0 °F 90% 29.84 in 10.0 mi SW 3.5 mph - N/A   Clear
2:53 AM 78.1 °F - 75.0 °F 90% 29.84 in 10.0 mi Calm Calm - N/A   Clear
3:53 AM 78.1 °F - 75.0 °F 90% 29.84 in 9.0 mi Calm Calm - N/A   Clear
4:53 AM 78.1 °F - 75.0 °F 90% 29.86 in 9.0 mi Calm Calm - N/A   Scattered Clouds
5:53 AM 77.0 °F - 75.0 °F 94% 29.89 in 9.0 mi West 4.6 mph - N/A   Mostly Cloudy
6:53 AM 77.0 °F - 75.0 °F 94% 29.92 in 8.0 mi WNW 5.8 mph - N/A   Mostly Cloudy
7:22 AM 78.8 °F - 75.2 °F 89% 29.91 in 10.0 mi NW 8.1 mph - N/A   Overcast
7:53 AM 78.1 °F - 75.0 °F 90% 29.94 in 10.0 mi WNW 5.8 mph - N/A   Mostly Cloudy
8:13 AM 78.8 °F - 75.2 °F 89% 29.92 in 10.0 mi West 4.6 mph - N/A   Scattered Clouds
8:53 AM 80.1 °F 85.1 °F 75.0 °F 85% 29.94 in 10.0 mi SW 6.9 mph - N/A   Scattered Clouds
9:53 AM 82.9 °F 89.4 °F 73.9 °F 74% 29.95 in 10.0 mi WNW 6.9 mph - N/A   Mostly Cloudy
10:53 AM 87.1 °F 92.8 °F 71.1 °F 59% 29.95 in 10.0 mi NNW 6.9 mph - N/A   Mostly Cloudy
11:53 AM 87.1 °F 93.6 °F 72.0 °F 61% 29.95 in 10.0 mi North 10.4 mph - N/A   Mostly Cloudy
12:53 PM 87.1 °F 93.6 °F 72.0 °F 61% 29.94 in 10.0 mi North 10.4 mph - N/A   Mostly Cloudy
1:53 PM 86.0 °F 92.2 °F 72.0 °F 63% 29.94 in 10.0 mi North 12.7 mph - N/A   Overcast
2:53 PM 84.9 °F 89.4 °F 70.0 °F 61% 29.94 in 10.0 mi North 17.3 mph 23.0 mph N/A   Overcast
3:53 PM 84.9 °F 89.4 °F 70.0 °F 61% 29.93 in 10.0 mi North 13.8 mph - N/A   Overcast
4:53 PM 84.9 °F 88.8 °F 69.1 °F 59% 29.92 in 10.0 mi North 15.0 mph - N/A   Overcast
5:53 PM 84.0 °F 87.8 °F 69.1 °F 61% 29.93 in 10.0 mi North 12.7 mph - N/A   Mostly Cloudy
6:53 PM 81.0 °F 83.8 °F 68.0 °F 65% 29.94 in 10.0 mi North 18.4 mph - N/A   Mostly Cloudy
7:53 PM 79.0 °F - 66.9 °F 66% 29.96 in 10.0 mi North 15.0 mph - N/A   Mostly Cloudy
8:53 PM 79.0 °F - 66.9 °F 66% 29.99 in 10.0 mi North 18.4 mph - N/A   Mostly Cloudy
9:53 PM 77.0 °F - 64.9 °F 66% 30.01 in 10.0 mi North 10.4 mph - N/A   Clear
10:53 PM 75.9 °F - 66.0 °F 71% 30.03 in 10.0 mi North 6.9 mph - N/A   Clear
11:53 PM 75.0 °F - 64.9 °F 71% 30.02 in 10.0 mi North 5.8 mph - N/A   Clear